Hot Springs, VA

8:41 PM EDT on June 22, 2017 (GMT -0400)
Ingalls

Weather History for KHSP - November, 2014

Change the Weather History Date:

Sunday, November 2, 2014

  Actual Average Record
Temperature  
Mean Temperature 30 °F -  
Max Temperature 36 °F 51 °F 71 °F (2003)
Min Temperature 24 °F 36 °F 19 °F (1996)
Degree Days  
Heating Degree Days 36    
Moisture  
Dew Point 20 °F    
Average Humidity 69    
Maximum Humidity 97    
Minimum Humidity 46    
Precipitation  
Precipitation 0.00 in - - ()
Sea Level Pressure  
Sea Level Pressure 30.07 in    
Wind  
Wind Speed 19 mph (NW)    
Max Wind Speed 25 mph    
Max Gust Speed 46 mph    
Visibility 10 miles    
Events Snow    
Averages and records for this station are not official NWS values.
T = Trace of Precipitation, MM = Missing Value Source: NWS Daily Summary

Daily Weather History Graph

Daily Weather History Graph

Search for Another Location

Airport or City:

Trip Planner

Search our weather history database for the weather conditions in past years. The results will help you decide how hot, cold, wet, or windy it might be!

Date:

Astronomy

Nov. 02, 2014 Rise Set
Actual Time 6:45 AM EST 5:19 PM EST
Civil Twilight 6:18 AM EST 5:46 PM EST
Nautical Twilight 5:47 AM EST 6:17 PM EST
Astronomical Twilight 5:16 AM EST 6:48 PM EST
Moon 2:45 PM EST (11/2) 1:51 AM EST (11/2)
Length of Visible Light 11h 27m
Length of Day
10h 33m
Waxing Gibbous, 78% of the Moon is Illuminated
Nov 2
Waxing Gibbous
Nov 6
Full
Nov 14
Last Quarter
Nov 22
New
Nov 29
First Quarter

Hourly Weather History & Observations

Time (EST) Temp. Windchill Dew Point Humidity Pressure Visibility Wind Dir Wind Speed Gust Speed Precip Events Conditions
12:15 AM 28.9 °F 15.1 °F 24.8 °F 84% 29.92 in 10.0 mi NNW 23.0 mph 32.2 mph N/A   Overcast
12:35 AM 28.4 °F 15.8 °F 24.4 °F 85% 29.91 in 10.0 mi NW 18.4 mph 32.2 mph N/A   Overcast
12:55 AM 28.8 °F 15.5 °F 21.7 °F 75% 29.92 in 10.0 mi NW 20.7 mph 36.8 mph N/A   Overcast
1:15 AM 28.4 °F 17.5 °F 21.2 °F 74% 29.92 in 10.0 mi NNW 13.8 mph 26.5 mph N/A   Overcast
1:35 AM 28.2 °F 15.9 °F 22.5 °F 79% 29.91 in 10.0 mi NW 17.3 mph 32.2 mph N/A   Overcast
1:55 AM 27.9 °F 14.7 °F 22.8 °F 81% 29.91 in 10.0 mi NW 19.6 mph 31.1 mph N/A   Overcast
1:15 AM 27.9 °F 13.1 °F 22.1 °F 79% 29.91 in 10.0 mi NW 25.3 mph 36.8 mph N/A   Overcast
1:35 AM 27.5 °F 14.2 °F 21.2 °F 77% 29.91 in 10.0 mi NW 19.6 mph 33.4 mph N/A   Overcast
1:55 AM 27.0 °F 14.7 °F 21.6 °F 80% 29.93 in 10.0 mi NW 16.1 mph 29.9 mph N/A   Overcast
2:15 AM 26.4 °F 13.2 °F 21.6 °F 82% 29.93 in 7.0 mi NNW 18.4 mph 28.8 mph N/A Snow Light Snow
2:35 AM 25.7 °F 13.5 °F 22.8 °F 89% 29.93 in 10.0 mi NW 15.0 mph 24.2 mph N/A Snow Light Snow
2:55 AM 25.7 °F 13.5 °F 22.1 °F 86% 29.94 in 7.0 mi NNW 15.0 mph 29.9 mph N/A Snow Light Snow
3:15 AM 25.2 °F 12.0 °F 21.9 °F 87% 29.94 in 4.0 mi NNW 17.3 mph 26.5 mph N/A Snow Light Snow
3:35 AM 24.8 °F 10.0 °F 23.4 °F 94% 29.94 in 1.8 mi NW 21.9 mph 32.2 mph N/A Snow Light Snow
3:50 AM 24.6 °F 8.8 °F 23.9 °F 97% 29.95 in 3.0 mi NW 25.3 mph 31.1 mph N/A Snow Light Snow
4:15 AM 24.6 °F 9.4 °F 21.9 °F 89% 29.96 in 3.0 mi NW 23.0 mph 31.1 mph N/A Snow Light Snow
4:35 AM 24.8 °F 9.6 °F 19.6 °F 81% 29.96 in 7.0 mi NW 23.0 mph 31.1 mph N/A Snow Light Snow
4:55 AM 24.8 °F 9.6 °F 15.6 °F 68% 29.97 in 10.0 mi NW 23.0 mph 36.8 mph N/A   Mostly Cloudy
5:15 AM 24.8 °F 11.1 °F 15.8 °F 69% 29.98 in 10.0 mi NW 18.4 mph 27.6 mph N/A   Scattered Clouds
5:35 AM 24.8 °F 11.9 °F 16.7 °F 71% 29.99 in 10.0 mi NW 16.1 mph 34.5 mph N/A   Overcast
5:55 AM 25.0 °F 12.6 °F 17.6 °F 74% 30.00 in 10.0 mi NW 15.0 mph 26.5 mph N/A   Overcast
6:15 AM 25.0 °F 10.2 °F 18.5 °F 76% 30.01 in 10.0 mi NW 21.9 mph 31.1 mph N/A   Overcast
6:35 AM 25.3 °F 11.8 °F 18.9 °F 76% 30.03 in 10.0 mi NW 18.4 mph 27.6 mph N/A   Overcast
6:55 AM 25.3 °F 11.4 °F 19.2 °F 78% 30.03 in 10.0 mi NNW 19.6 mph 29.9 mph N/A   Overcast
7:15 AM 25.3 °F 11.8 °F 19.4 °F 78% 30.04 in 10.0 mi NW 18.4 mph 29.9 mph N/A   Overcast
7:35 AM 25.3 °F 10.7 °F 19.8 °F 79% 30.05 in 10.0 mi NNW 21.9 mph 28.8 mph N/A   Overcast
7:55 AM 25.7 °F 12.3 °F 19.9 °F 79% 30.06 in 10.0 mi NW 18.4 mph 36.8 mph N/A   Overcast
8:15 AM 26.4 °F 12.5 °F 19.6 °F 75% 30.06 in 10.0 mi NW 20.7 mph 32.2 mph N/A   Overcast
8:35 AM 26.2 °F 12.2 °F 19.2 °F 75% 30.07 in 10.0 mi NW 20.7 mph 46.0 mph N/A   Overcast
8:55 AM 26.2 °F 11.9 °F 19.2 °F 75% 30.08 in 10.0 mi NW 21.9 mph 33.4 mph N/A   Overcast
9:15 AM 26.2 °F 13.0 °F 19.2 °F 75% 30.09 in 10.0 mi NW 18.4 mph 33.4 mph N/A   Overcast
9:35 AM 27.1 °F 16.9 °F 19.4 °F 73% 30.10 in 10.0 mi NNW 11.5 mph 24.2 mph N/A   Overcast
9:55 AM 27.7 °F 15.6 °F 20.1 °F 73% 30.11 in 10.0 mi NW 16.1 mph 25.3 mph N/A   Overcast
10:15 AM 28.8 °F 16.6 °F 20.3 °F 71% 30.11 in 10.0 mi NW 17.3 mph 25.3 mph N/A   Overcast
10:35 AM 29.5 °F 18.0 °F 20.7 °F 70% 30.11 in 10.0 mi NW 16.1 mph 31.1 mph N/A   Mostly Cloudy
10:55 AM 29.7 °F 16.7 °F 19.4 °F 66% 30.11 in 10.0 mi NW 20.7 mph 32.2 mph N/A   Scattered Clouds
11:15 AM 30.2 °F 18.1 °F 20.5 °F 67% 30.12 in 10.0 mi NNW 18.4 mph 27.6 mph N/A   Scattered Clouds
11:35 AM 30.6 °F 17.9 °F 19.9 °F 65% 30.11 in 10.0 mi NW 20.7 mph 29.9 mph N/A   Scattered Clouds
11:55 AM 31.3 °F 19.9 °F 19.8 °F 62% 30.11 in 10.0 mi NW 17.3 mph 32.2 mph N/A   Scattered Clouds
12:15 PM 31.8 °F 19.6 °F 19.6 °F 61% 30.11 in 10.0 mi WNW 20.7 mph 29.9 mph N/A   Scattered Clouds
12:55 PM 33.3 °F 21.8 °F 19.8 °F 58% 30.11 in 10.0 mi NW 19.6 mph 28.8 mph N/A   Clear
1:10 PM 33.3 °F 22.1 °F 18.7 °F 55% 30.11 in 10.0 mi NW 18.4 mph 27.6 mph N/A   Clear
1:35 PM 33.6 °F 22.9 °F 17.6 °F 52% 30.10 in 10.0 mi NW 17.3 mph 28.8 mph N/A   Clear
1:50 PM 34.7 °F 24.7 °F 17.8 °F 50% 30.11 in 10.0 mi NW 16.1 mph 27.6 mph N/A   Clear
2:15 PM 35.4 °F 27.3 °F 18.0 °F 49% 30.11 in 10.0 mi NNW 11.5 mph 23.0 mph N/A   Clear
2:35 PM 34.9 °F 23.9 °F 16.7 °F 48% 30.11 in 10.0 mi WNW 19.6 mph 29.9 mph N/A   Clear
2:55 PM 35.1 °F 24.8 °F 16.2 °F 46% 30.12 in 10.0 mi NW 17.3 mph 27.6 mph N/A   Clear
3:15 PM 36.0 °F 25.6 °F 16.5 °F 45% 30.12 in 10.0 mi NW 18.4 mph 27.6 mph N/A   Clear
3:35 PM 35.6 °F 25.9 °F 17.4 °F 48% 30.13 in 10.0 mi NW 16.1 mph 23.0 mph N/A   Clear
3:55 PM 35.4 °F 25.3 °F 17.2 °F 48% 30.12 in 10.0 mi WNW 17.3 mph 33.4 mph N/A   Clear
4:15 PM 34.9 °F 24.6 °F 17.2 °F 49% 30.14 in 10.0 mi WNW 17.3 mph 27.6 mph N/A   Clear
4:35 PM 34.3 °F 22.9 °F 17.1 °F 49% 30.14 in 10.0 mi WNW 20.7 mph 29.9 mph N/A   Clear
4:55 PM 33.8 °F 23.2 °F 17.2 °F 51% 30.15 in 10.0 mi WNW 17.3 mph 25.3 mph N/A   Clear
5:15 PM 32.9 °F 21.6 °F 17.2 °F 53% 30.15 in 10.0 mi WNW 18.4 mph 27.6 mph N/A   Clear
5:35 PM 32.4 °F 19.7 °F 17.1 °F 53% 30.16 in 10.0 mi NW 23.0 mph 27.6 mph N/A   Clear
5:55 PM 32.0 °F 20.5 °F 17.6 °F 55% 30.17 in 10.0 mi WNW 18.4 mph 28.8 mph N/A   Clear
6:15 PM 32.0 °F 18.6 °F 18.5 °F 58% 30.18 in 10.0 mi NW 25.3 mph 33.4 mph N/A   Clear
6:35 PM 32.0 °F 19.2 °F 18.9 °F 58% 30.18 in 10.0 mi NW 23.0 mph 29.9 mph N/A   Clear
6:55 PM 32.0 °F 19.2 °F 19.2 °F 59% 30.18 in 10.0 mi NW 23.0 mph 31.1 mph N/A   Clear
7:15 PM 31.6 °F 18.4 °F 19.6 °F 61% 30.19 in 10.0 mi WNW 24.2 mph 31.1 mph N/A   Clear
7:35 PM 31.3 °F 18.2 °F 20.1 °F 63% 30.21 in 10.0 mi WNW 23.0 mph 34.5 mph N/A   Clear
7:55 PM 31.1 °F 18.9 °F 20.5 °F 65% 30.21 in 10.0 mi WNW 19.6 mph 28.8 mph N/A   Clear
8:10 PM 31.1 °F 19.7 °F 20.5 °F 65% 30.21 in 10.0 mi WNW 17.3 mph 24.2 mph N/A   Clear
8:35 PM 30.7 °F 19.6 °F 21.0 °F 67% 30.21 in 10.0 mi WNW 16.1 mph 24.2 mph N/A   Clear
8:55 PM 30.6 °F 18.6 °F 21.0 °F 68% 30.21 in 10.0 mi WNW 18.4 mph 25.3 mph N/A   Clear
9:15 PM 30.7 °F 19.2 °F 21.0 °F 67% 30.22 in 10.0 mi NW 17.3 mph 26.5 mph N/A   Clear
9:35 PM 30.7 °F 19.6 °F 21.2 °F 68% 30.21 in 10.0 mi NW 16.1 mph 23.0 mph N/A   Clear
9:55 PM 30.2 °F 19.3 °F 21.2 °F 69% 30.21 in 10.0 mi WNW 15.0 mph - N/A   Clear
10:15 PM 30.0 °F 18.3 °F 21.2 °F 70% 30.21 in 10.0 mi WNW 17.3 mph - N/A   Clear
10:35 PM 30.0 °F 18.7 °F 21.4 °F 70% 30.22 in 10.0 mi WNW 16.1 mph 19.6 mph N/A   Clear
10:55 PM 29.8 °F 18.4 °F 21.6 °F 71% 30.22 in 10.0 mi WNW 16.1 mph 19.6 mph N/A   Clear